Home   Weather   Telford   Past weeks

Flag for United Kingdom Past Weather in Telford, England, United Kingdom — Yesterday and Last 2 Weeks

Now
64 °F

Passing clouds.


Feels Like: 64 °F
Forecast: 50 / 64 °F
Wind: 17 mph from Southwest

Location: Shawbury

Current Time: Sep 29, 2016 at 12:55:35 AM

Latest Report: Sep 28, 2016 at 11:50 PM


Visibility: N/A

Pressure: 29.95 "Hg

Humidity: 78%

Dew Point: 57 °F

Location of TelfordLocation

Past Weather in Telford — Graph

°F

Telford Temperature Yesterday

Maximum temperature yesterday: 72 °F (at 1:50 PM)
Minimum temperature yesterday: 54 °F (at 12:50 AM)
Average temperature yesterday: 62 °F

High & Low Weather Summary for the Past Weeks

 TemperatureHumidityPressure
High77 °F (Sep 14, 3:50 PM)100% (Sep 13, 10:50 PM)30.21 "Hg (Sep 13, 10:50 PM)
Low41 °F (Sep 23, 6:50 AM)52% (Sep 22, 4:50 PM)29.71 "Hg (Sep 24, 10:50 PM)
Average59 °F82%30.04 "Hg
* Reported Sep 13 10:50 PM — Sep 28 10:50 PM, Telford, Weather by CustomWeather, © 2016

Note: Actual official high and low records may vary slightly from our data, if they occured in-between our weather recording intervals... More about our weather records

Advertising

Telford Weather History for the Previous 24 Hours

Scroll right to see more
 ConditionsComfort  
Time TempWeatherWind HumidityBarometerVisibility
10:50 PM
Wed, Sep 28
64 °FPassing clouds.14 mph78%29.98 "HgN/A
9:50 PM64 °FPassing clouds.15 mph83%30.01 "HgN/A
8:50 PM66 °FPassing clouds.17 mph78%30.01 "HgN/A
7:50 PM66 °FPartly cloudy.20 mph83%30.04 "HgN/A
6:50 PM68 °FBroken clouds.17 mph78%30.04 "HgN/A
5:50 PM68 °FBroken clouds.17 mph83%30.07 "HgN/A
4:50 PM70 °FBroken clouds.21 mph78%30.07 "HgN/A
2:50 PM68 °FScattered clouds.17 mph83%30.12 "HgN/A
1:50 PM72 °FScattered clouds.25 mph73%30.12 "HgN/A
12:50 PM70 °FScattered clouds.23 mph78%30.12 "HgN/A
11:50 AM68 °FScattered clouds.14 mph78%30.15 "HgN/A
10:50 AM64 °FBroken clouds.15 mph83%30.18 "HgN/A
9:50 AM61 °FPartly sunny.12 mph83%30.18 "HgN/A
8:50 AM61 °FScattered clouds.12 mph77%30.18 "HgN/A
7:50 AM57 °FScattered clouds.7 mph82%30.18 "HgN/A
6:50 AM55 °FPassing clouds.13 mph88%30.18 "HgN/A
5:50 AM55 °FOvercast.9 mph88%30.18 "HgN/A
4:50 AM57 °FPartly cloudy.8 mph77%30.15 "HgN/A
3:50 AM55 °FCool.15 mph82%30.18 "HgN/A
2:50 AM54 °FCool.17 mph88%30.18 "HgN/A
1:50 AM54 °FCool.14 mph88%30.18 "HgN/A
12:50 AM54 °FCool.13 mph88%30.18 "HgN/A
Weather by CustomWeather, © 2016

See weather overviewHow to use our weather pages